ONEWEB-0059, 45162

Orbit data source: Space-Track

ONEWEB-0059, 45162 is a payload satellite owned by One Web (UK) in LEO that was launched on Thu, 06 Feb 2020 UTC via a SOYUZ-2-1B launch vehicle from the Tyuratam Missile And Space Complex (TTMTR). Payload-class satellites include a variety of spacecraft equipped with specific instruments for various scientific and technological missions. These include communications satellites like Starlink; space stations such as the ISS; scientific satellites like the Hubble; Earth observation satellites from companies like Planet Labs, Umbra, and HawkEye 360; GPS; miniature CubeSats for education and research; and military/defense satellites.

Loading next visibility...
Identifier
45162, 2020-008AH
Orbit
LEO
Last TLE update
20 hours ago
Origin
Manufacturer
One Web
Mission
Operational Commercial Communications
Bus & Motor
ARROW, Unknown motor
Mass
148 kg wet, ~140 kg dry
Launch date (UTC)
2020-02-06 (5 years ago)
Launch vehicle
SOYUZ-2-1B
Launch site
Tyuratam Missile And Space Complex (TTMTR)
Object type
Payload
Rocket body
Debris
Shape & HBR
Trap Box + 2 Pan, 5 m
Radar Cross Section
2.957 m², Large (>1 m²)

Expand to show TLE details & history

TLE from 20 hours ago
0 ONEWEB-0059
1 45162U 20008AH  25128.51247293 -.00000016  00000-0 -82864-4 0  9990
2 45162  87.8789 116.9693 0001900  90.2659 269.8686 13.10369705255320
Epoch: 2025-05-08T12:17Z
Definitive object data (Epoch: 2025-05-08T12:17:57.661Z)
Latitude
-0.00001°
Longitude
65.89714°
Altitude
1,224.62 km
Speed
7.242 km/s
True Right ascension
07h 47m 52s
True Declination
0° 00' 00"
Sunlit
Object was in daylight at TLE epoch
Visualization TLE readout
Latitude
-85.4384°
Longitude
38.2245°
Altitude
1,251.888 km
Speed
7.228 km/s
Apparent Right ascension
04h 21m 47s
Apparent Declination
-64° 56' 35"
Sunlit
Object is in daylight
Visualization observer readout
Local Sidereal Time
16:10:16
Azimuth
182.876° SSW
Elevation
-64.918°
Doppler factor
1
Orbital elements
Apogee altitude
1,220.292 km
Perigee altitude
1,217.406 km
Semi-major axis
7,596.986 km
Eccentricity
0.00019
Inclination
87.8789°
RAAN
116.9693°
Arg. of periapsis
90.2659°
True anomaly
269.84683°
Mean anomaly
269.8686°
Eccentric anomaly
269.85771°
Mean motion
3.27779 °/min
BSTAR
-0.000082864
Orbital period
109.83 mins
Loading maneuver chart data...
Loading SW <> Apogee altitude chart data...
Loading historical data...
Loading historical data...
Loading historical data...
Loading historical data...
Loading historical data...
Loading historical data...
Loading historical data...

ONEWEB-0059 Visibility forecast

Observer location: undefined°, undefined°

Span
Click to sort rows by Start time (UTC) header in descending order
Start Az.
Max El. time (UTC)
Max El. Az.
Max El.
End time (UTC)
End Az.
14 mins2025-05-09 10:53:10.964Z8.155° NNE2025-05-09 11:00:10.964Z88.594° E39.965°2025-05-09 11:07:10.964Z163.339° S
10 mins2025-05-09 12:45:10.964Z327.25° NNW2025-05-09 12:49:10.964Z287.936° WNW23.319°2025-05-09 12:55:10.964Z232.161° WSW
13 mins2025-05-09 23:13:10.964Z163.116° S2025-05-09 23:19:10.964Z92.009° ESE41.944°2025-05-09 23:26:10.964Z7.479° NNE
9 mins2025-05-10 01:06:10.964Z247.266° WSW2025-05-10 01:10:10.964Z287.951° WNW20.97°2025-05-10 01:15:10.964Z332.306° NNW
|